When you browse on this site, cookies collect data to enhance your experience and personalize the content and advertising you see.
Visit our Privacy Policy to learn more. By continuing to use the site, you agree to this use of cookies and data.
  • en France
  • Liste des pays
  • À 7 jours
  • Température de l'eau
  • Carte météo
  • Widgets météo
  • user-avatar
    Se connecter

    Météo par heure à Chichester

    Ce jour, 23 Août, Vendredi

    Heure Température Précipitation Vent Pression Humidité
    00:00 +16°C° 0 mm 1 m/s 767 mmHg 89%
    01:00 +16°C° 0 mm 1 m/s 767 mmHg 89%
    02:00 +15°C° 0 mm 0 m/s 767 mmHg 89%
    03:00 +14°C° 0 mm 0 m/s 767 mmHg 89%
    04:00 +15°C° 0 mm 0 m/s 767 mmHg 89%
    05:00 +15°C° 0 mm 0 m/s 767 mmHg 89%
    06:00 +15°C° 0 mm 0 m/s 766 mmHg 89%
    07:00 +19°C° 0 mm 1 m/s 767 mmHg 83%
    08:00 +20°C° 0 mm 1 m/s 767 mmHg 77%
    09:00 +21°C° 0 mm 2 m/s 767 mmHg 71%
    10:00 +21°C° 0 mm 2 m/s 767 mmHg 66%
    11:00 +23°C° 0 mm 2 m/s 766 mmHg 61%
    12:00 +24°C° 0 mm 3 m/s 766 mmHg 56%
    13:00 +24°C° 0 mm 2 m/s 766 mmHg 54%
    14:00 +24°C° 0 mm 2 m/s 766 mmHg 52%
    15:00 +24°C° 0 mm 2 m/s 765 mmHg 50%
    16:00 +23°C° 0 mm 2 m/s 765 mmHg 54%
    17:00 +21°C° 0 mm 2 m/s 765 mmHg 57%
    18:00 +20°C° 0 mm 2 m/s 764 mmHg 61%
    19:00 +19°C° 0 mm 2 m/s 764 mmHg 60%
    20:00 +18°C° 0 mm 2 m/s 764 mmHg 60%
    21:00 +17°C° 0 mm 2 m/s 765 mmHg 59%
    22:00 +17°C° 0 mm 3 m/s 764 mmHg 60%
    23:00 +17°C° 0 mm 3 m/s 764 mmHg 61%

    Demain, 24 Août, Samedi

    Heure Température Précipitation Vent Pression Humidité
    00:00 +16°C° 0 mm 3 m/s 764 mmHg 62%
    01:00 +16°C° 0 mm 3 m/s 763 mmHg 64%
    02:00 +16°C° 0 mm 3 m/s 763 mmHg 67%
    03:00 +16°C° 0 mm 3 m/s 763 mmHg 70%
    04:00 +16°C° 0 mm 3 m/s 763 mmHg 71%
    05:00 +16°C° 0 mm 3 m/s 762 mmHg 72%
    06:00 +17°C° 0 mm 3 m/s 762 mmHg 73%
    07:00 +19°C° 0 mm 3 m/s 762 mmHg 69%
    08:00 +20°C° 0 mm 3 m/s 762 mmHg 65%
    09:00 +22°C° 0 mm 4 m/s 762 mmHg 61%
    10:00 +23°C° 0 mm 4 m/s 762 mmHg 59%
    11:00 +25°C° 0 mm 4 m/s 762 mmHg 56%
    12:00 +26°C° 0 mm 4 m/s 761 mmHg 54%
    13:00 +26°C° 0 mm 4 m/s 761 mmHg 54%
    14:00 +26°C° 0 mm 4 m/s 761 mmHg 53%
    15:00 +26°C° 0 mm 4 m/s 761 mmHg 53%
    16:00 +25°C° 0 mm 3 m/s 760 mmHg 57%
    17:00 +24°C° 0 mm 3 m/s 760 mmHg 62%
    18:00 +22°C° 0 mm 3 m/s 759 mmHg 67%
    19:00 +21°C° 0 mm 3 m/s 760 mmHg 68%
    20:00 +20°C° 0 mm 3 m/s 760 mmHg 69%
    21:00 +19°C° 0 mm 3 m/s 760 mmHg 71%
    22:00 +19°C° 0 mm 3 m/s 760 mmHg 72%
    23:00 +19°C° 0 mm 3 m/s 760 mmHg 74%

    Après-demain, 25 Août, Dimanche

    Heure Température Précipitation Vent Pression Humidité
    00:00 +18°C° 0 mm 3 m/s 760 mmHg 75%
    01:00 +18°C° 0 mm 3 m/s 759 mmHg 76%
    02:00 +18°C° 0 mm 3 m/s 759 mmHg 76%
    03:00 +18°C° 0 mm 3 m/s 759 mmHg 76%
    04:00 +18°C° 0 mm 3 m/s 759 mmHg 76%
    05:00 +19°C° 0 mm 3 m/s 759 mmHg 76%
    06:00 +19°C° 0 mm 3 m/s 759 mmHg 76%
    07:00 +21°C° 0 mm 3 m/s 759 mmHg 70%
    08:00 +22°C° 0 mm 3 m/s 759 mmHg 65%
    09:00 +25°C° 0 mm 4 m/s 760 mmHg 59%
    10:00 +26°C° 0 mm 4 m/s 759 mmHg 56%
    11:00 +26°C° 0 mm 4 m/s 759 mmHg 53%
    12:00 +27°C° 0 mm 4 m/s 759 mmHg 51%
    13:00 +27°C° 0 mm 4 m/s 759 mmHg 51%
    14:00 +26°C° 0 mm 4 m/s 759 mmHg 52%
    15:00 +26°C° 0 mm 3 m/s 759 mmHg 53%
    16:00 +25°C° 0 mm 3 m/s 759 mmHg 60%
    17:00 +24°C° 0 mm 3 m/s 759 mmHg 66%
    18:00 +22°C° 0 mm 3 m/s 759 mmHg 72%
    19:00 +20°C° 0 mm 2 m/s 760 mmHg 77%
    20:00 +19°C° 0 mm 2 m/s 760 mmHg 82%
    21:00 +19°C° 0 mm 1 m/s 761 mmHg 86%
    22:00 +19°C° 0 mm 1 m/s 761 mmHg 87%
    23:00 +18°C° 0 mm 1 m/s 761 mmHg 88%

    26 Août, Lundi

    Heure Température Précipitation Vent Pression Humidité
    00:00 +18°C° 0 mm 1 m/s 761 mmHg 89%
    01:00 +18°C° 0 mm 1 m/s 761 mmHg 89%
    02:00 +18°C° 0 mm 1 m/s 760 mmHg 89%
    03:00 +18°C° 0 mm 1 m/s 760 mmHg 88%
    04:00 +18°C° 0 mm 1 m/s 760 mmHg 86%
    05:00 +18°C° 0 mm 1 m/s 761 mmHg 83%
    06:00 +16°C° 0 mm 0 m/s 761 mmHg 81%
    07:00 +20°C° 0 mm 1 m/s 761 mmHg 74%
    08:00 +22°C° 0 mm 1 m/s 761 mmHg 67%
    09:00 +24°C° 0 mm 1 m/s 761 mmHg 60%
    10:00 +25°C° 0 mm 2 m/s 761 mmHg 57%
    11:00 +26°C° 0 mm 2 m/s 761 mmHg 54%
    12:00 +27°C° 0 mm 3 m/s 761 mmHg 51%
    13:00 +27°C° 0 mm 3 m/s 760 mmHg 52%
    14:00 +27°C° 0 mm 3 m/s 760 mmHg 53%
    15:00 +27°C° 0 mm 4 m/s 760 mmHg 55%
    16:00 +26°C° 0 mm 4 m/s 760 mmHg 60%
    17:00 +25°C° 0 mm 4 m/s 759 mmHg 65%
    18:00 +22°C° 0 mm 5 m/s 759 mmHg 70%
    19:00 +21°C° 0.5 mm 4 m/s 759 mmHg 75%
    20:00 +20°C° 0.5 mm 3 m/s 759 mmHg 80%
    21:00 +19°C° 0.5 mm 3 m/s 759 mmHg 84%
    22:00 +19°C° 0.8 mm 3 m/s 759 mmHg 87%
    23:00 +19°C° 0.8 mm 3 m/s 759 mmHg 90%

    27 Août, Mardi

    Heure Température Précipitation Vent Pression Humidité
    00:00 +18°C° 0.8 mm 3 m/s 759 mmHg 93%
    01:00 +18°C° 0.3 mm 2 m/s 759 mmHg 94%
    02:00 +18°C° 0.3 mm 2 m/s 758 mmHg 94%
    03:00 +18°C° 0.3 mm 2 m/s 758 mmHg 95%
    04:00 +18°C° 0.1 mm 2 m/s 758 mmHg 95%
    05:00 +18°C° 0.1 mm 3 m/s 758 mmHg 95%
    06:00 +18°C° 0.1 mm 3 m/s 758 mmHg 95%
    07:00 +19°C° 0.2 mm 3 m/s 758 mmHg 90%
    08:00 +20°C° 0.2 mm 3 m/s 758 mmHg 86%
    09:00 +21°C° 0.2 mm 3 m/s 758 mmHg 81%
    10:00 +20°C° 0.5 mm 4 m/s 758 mmHg 81%
    11:00 +20°C° 0.5 mm 5 m/s 758 mmHg 80%
    12:00 +20°C° 0.5 mm 6 m/s 758 mmHg 80%
    13:00 +21°C° 0.1 mm 6 m/s 758 mmHg 74%
    14:00 +22°C° 0.1 mm 7 m/s 758 mmHg 67%
    15:00 +23°C° 0.1 mm 8 m/s 757 mmHg 61%
    16:00 +22°C° 0 mm 8 m/s 758 mmHg 64%
    17:00 +21°C° 0 mm 8 m/s 758 mmHg 67%
    18:00 +20°C° 0 mm 7 m/s 758 mmHg 70%
    19:00 +18°C° 0 mm 7 m/s 758 mmHg 75%
    20:00 +17°C° 0 mm 6 m/s 759 mmHg 79%
    21:00 +16°C° 0 mm 6 m/s 759 mmHg 83%
    22:00 +16°C° 0 mm 6 m/s 759 mmHg 85%
    23:00 +15°C° 0 mm 5 m/s 760 mmHg 86%

    28 Août, Mercredi

    Heure Température Précipitation Vent Pression Humidité
    00:00 +15°C° 0 mm 5 m/s 760 mmHg 88%
    01:00 +15°C° 0 mm 5 m/s 760 mmHg 89%
    02:00 +15°C° 0 mm 6 m/s 760 mmHg 90%
    03:00 +15°C° 0 mm 6 m/s 759 mmHg 92%
    04:00 +16°C° 0 mm 6 m/s 760 mmHg 91%
    05:00 +16°C° 0 mm 6 m/s 760 mmHg 90%
    06:00 +17°C° 0 mm 6 m/s 760 mmHg 90%
    07:00 +17°C° 0 mm 6 m/s 760 mmHg 88%
    08:00 +19°C° 0 mm 6 m/s 760 mmHg 85%
    09:00 +18°C° 0 mm 7 m/s 761 mmHg 83%
    10:00 +20°C° 0.1 mm 7 m/s 761 mmHg 80%
    11:00 +20°C° 0.1 mm 6 m/s 761 mmHg 78%
    12:00 +21°C° 0.1 mm 6 m/s 761 mmHg 75%
    13:00 +21°C° 0 mm 6 m/s 761 mmHg 73%
    14:00 +21°C° 0 mm 6 m/s 761 mmHg 71%
    15:00 +21°C° 0 mm 6 m/s 761 mmHg 69%
    16:00 +20°C° 0 mm 5 m/s 761 mmHg 70%
    17:00 +19°C° 0 mm 5 m/s 761 mmHg 72%
    18:00 +19°C° 0 mm 4 m/s 762 mmHg 74%
    19:00 +17°C° 0 mm 4 m/s 762 mmHg 74%
    20:00 +16°C° 0 mm 3 m/s 762 mmHg 73%
    21:00 +14°C° 0 mm 3 m/s 762 mmHg 73%
    22:00 +14°C° 0 mm 2 m/s 762 mmHg 73%
    23:00 +14°C° 0 mm 2 m/s 762 mmHg 72%
    Voir plus